Weather History for MMCU - February, 2013

Change the Weather History Date:

Friday, February 22, 2013

  Actual Average Record
Temperature  
Mean Temperature 46 °F -  
Max Temperature 59 °F 72 °F 82 °F (2001)
Min Temperature 32 °F 40 °F 28 °F (2002)
Degree Days  
Heating Degree Days 20    
Moisture  
Dew Point 18 °F    
Average Humidity 27    
Maximum Humidity 41    
Minimum Humidity 15    
Precipitation  
Precipitation 0.00 in - - ()
Sea Level Pressure  
Sea Level Pressure 29.95 in    
Wind  
Wind Speed 6 mph ()    
Max Wind Speed 24 mph    
Max Gust Speed -    
Visibility 7.9 miles    
Events      
Averages and records for this station are not official NWS values.
T = Trace of Precipitation, MM = Missing Value Source: Averaged Metar Reports

Daily Weather History Graph

Daily Weather History Graph

Search for Another Location

Airport or City:

Trip Planner

Search our weather history database for the weather conditions in past years. The results will help you decide how hot, cold, wet, or windy it might be!

Date:

Astronomy

Feb. 22, 2013 Rise Set
Actual Time 6:35 AM MST 5:59 PM MST
Civil Twilight 6:11 AM MST 6:23 PM MST
Nautical Twilight 5:44 AM MST 6:50 PM MST
Astronomical Twilight 5:16 AM MST 7:18 PM MST
Moon 3:21 PM MST 4:12 AM MST
Length of Visible Light 12h 11m
Length of Day
11h 23m
Waxing Gibbous, 90% of the Moon is Illuminated
Feb 22
Waxing Gibbous
Feb 25
Full
Mar 4
Last Quarter
Mar 11
New
Mar 19
First Quarter

Hourly Weather History & Observations

Time (MST) Temp. Windchill Dew Point Humidity Pressure Visibility Wind Dir Wind Speed Gust Speed Precip Events Conditions
1:50 AM 35 °F - 13 °F 26% 29.76 in 1 mi Calm Calm - -  
3:09 AM 58 °F - 28 °F 20% 29.86 in 6 mi NNE 6.7 mph - -  
4:50 AM 32 °F - 11 °F 28% 29.84 in 1 mi Calm Calm - -  
5:40 AM 35.6 °F 30.7 °F 10.4 °F 35% 29.94 in 10.0 mi NNW 5.8 mph - N/A   Scattered Clouds
6:40 AM 35.6 °F 31.7 °F 14.0 °F 41% 30.00 in 10.0 mi NW 4.6 mph - N/A   Scattered Clouds
7:42 AM 33.8 °F - 10.4 °F 38% 30.02 in 10.0 mi Calm Calm - N/A   Scattered Clouds
7:45 AM 41 °F - 20 °F 30% 29.95 in 6 mi South 2.2 mph - -   Scattered Clouds
8:40 AM 39.2 °F - 14.0 °F 36% 30.05 in 10.0 mi Calm Calm - N/A   Scattered Clouds
9:48 AM 46.4 °F 40.1 °F 19.4 °F 34% 30.05 in 10.0 mi North 15.0 mph - N/A   Scattered Clouds
10:45 AM 51 °F - 22 °F 20% 29.96 in 6 mi ENE 4.5 mph - -   Scattered Clouds
10:45 AM 50.0 °F - 19.4 °F 30% 30.01 in 10.0 mi North 16.1 mph - N/A   Scattered Clouds
11:43 AM 53.6 °F - 21.2 °F 28% 30.03 in 10.0 mi North 17.3 mph - N/A   Scattered Clouds
12:42 PM 55.4 °F - 21.2 °F 26% 30.01 in 10.0 mi NNE 24.2 mph - N/A   Unknown
1:45 PM 57.2 °F - 21.2 °F 25% 29.94 in 10.0 mi North 15.0 mph - N/A   Scattered Clouds
2:40 PM 59.0 °F - 19.4 °F 22% 29.97 in 10.0 mi North 16.1 mph - N/A   Scattered Clouds
3:40 PM 59.0 °F - 19.4 °F 22% 29.97 in 10.0 mi North 11.5 mph - N/A   Scattered Clouds
3:42 PM 59.0 °F - 19.4 °F 22% 29.97 in 10.0 mi North 11.5 mph - N/A   Scattered Clouds
4:40 PM 57.2 °F - 19.4 °F 23% 29.93 in 10.0 mi NNE 11.5 mph - N/A   Scattered Clouds
4:45 PM 59 °F - 24 °F 15% 29.78 in 6 mi ENE 6.7 mph - -  
5:40 PM 57.2 °F - 19.4 °F 23% 29.97 in 10.0 mi North 11.5 mph - N/A   Scattered Clouds
6:40 PM 50.0 °F - 17.6 °F 28% 30.01 in 10.0 mi North 5.8 mph - N/A   Scattered Clouds
7:40 PM 48.2 °F - 15.8 °F 27% 30.04 in 10.0 mi East 5.8 mph - N/A   Scattered Clouds
7:46 PM 52 °F - 23 °F 20% 29.81 in 1 mi North 2.2 mph - -  
8:40 PM 42.8 °F - 17.6 °F 36% 30.05 in 10.0 mi Calm Calm - N/A   Scattered Clouds
10:30 PM 46 °F - 22 °F 25% 29.87 in 1 mi WNW 2.2 mph - -